Wind_Speed
11 11 13 12 11 9 13 17 16 20 20 16 16 14 11 12 10 11 17 24 25 22 17 17 15 12 16 26 31 29 25 27 28 28 30 33 34 35 38 40 41 41 39 40 41 40 40 40 38 39 39 35 34 35 34 33 33 31 29 28 28 26 24 22 21 20 24 34 41 40 39 39 37 36 35 34 34 35 33 31 29 28 27 26 26 26
9 10 11 13 15 16 18 20 18 19 20 19 19 16 13 11 9 11 15 18 21 20 15 17 16 14 19 26 30 32 30 29 31 31 31 33 34 35 38 39 39 40 40 40 41 41 40 39 38 39 39 37 36 35 35 35 34 32 29 28 28 27 24 22 21 20 22 30 38 40 39 40 39 37 35 35 36 36 34 32 30 29 28 27 27 27
10 11 12 13 17 17 16 17 17 16 18 19 19 18 16 11 9 12 12 12 20 21 13 15 17 17 23 27 28 31 30 29 31 32 33 35 36 38 39 39 39 39 40 40 41 41 40 39 37 38 39 38 38 36 34 35 36 34 32 30 29 28 26 23 23 23 24 29 35 39 39 38 39 37 35 35 36 35 33 33 31 30 29 28 27 28
10 12 14 14 15 15 16 17 18 17 18 20 20 21 18 11 11 14 15 17 24 24 15 14 14 14 19 24 26 27 27 28 30 31 33 33 35 39 40 39 38 39 40 40 40 40 39 39 38 37 38 39 41 39 36 36 37 36 35 33 30 29 26 22 23 24 26 29 32 36 37 36 36 36 35 36 35 33 31 32 32 30 29 28 28 28
10 13 14 14 14 15 16 17 17 18 19 21 22 23 20 14 14 18 19 21 23 21 16 15 17 17 17 21 26 27 28 30 31 31 32 34 35 38 39 38 38 39 40 39 38 38 37 38 38 37 38 40 42 42 40 38 37 37 37 34 31 29 25 21 22 24 28 30 30 32 35 35 36 36 35 36 33 30 29 30 29 28 27 27 28 28
11 14 13 14 15 15 17 17 18 19 19 20 21 22 22 20 20 19 18 20 21 21 20 19 20 20 18 22 27 29 31 31 31 31 32 33 35 36 38 38 38 38 38 38 37 37 36 37 38 37 38 41 43 43 42 40 38 37 36 34 32 29 26 25 24 24 27 30 29 31 33 34 37 36 35 36 33 28 27 27 27 26 26 27 27 28
12 14 14 15 17 17 18 18 20 21 20 20 20 21 23 22 20 19 18 20 22 22 22 20 21 20 17 19 25 28 30 32 33 32 31 33 35 36 38 39 38 36 36 37 37 36 35 36 37 37 37 41 43 42 42 41 40 37 36 37 34 29 27 26 23 21 23 27 29 31 32 33 36 35 34 36 34 29 27 26 27 27 26 26 26 27
12 14 15 16 17 17 18 19 20 20 18 18 21 21 20 18 18 19 19 20 20 21 21 21 22 24 22 23 26 29 31 34 34 32 31 32 31 32 34 36 37 36 36 36 35 35 35 35 35 36 36 39 42 43 42 41 40 38 36 38 35 29 27 23 21 20 21 26 30 30 32 34 37 36 32 31 29 27 27 26 27 27 26 25 25 26
12 14 16 17 17 17 18 18 18 16 15 18 21 20 18 17 17 18 19 20 20 22 24 23 23 27 28 28 31 33 35 35 32 31 32 30 26 26 30 35 37 35 34 35 34 35 36 34 34 35 35 37 39 42 43 42 41 39 36 37 34 28 26 23 22 24 23 26 29 30 32 33 36 37 32 29 26 26 28 27 27 28 27 26 25 26
15 17 18 17 17 17 17 16 16 15 15 18 19 16 16 18 18 19 20 21 21 23 26 24 23 26 29 30 31 33 36 35 32 34 36 34 32 33 33 34 36 34 32 34 34 34 35 34 34 34 34 35 36 40 43 43 43 41 36 37 35 28 26 25 25 25 24 25 28 31 34 32 33 34 31 30 29 28 28 27 26 27 27 27 26 25
17 18 18 18 17 16 16 17 17 16 16 18 18 16 18 20 20 22 22 22 23 26 26 22 22 27 28 29 29 31 33 33 33 35 37 37 37 35 32 31 31 30 30 33 33 33 34 34 33 33 33 33 34 38 41 42 43 42 38 37 36 30 26 24 24 24 22 22 24 25 30 30 28 29 28 29 30 27 26 25 25 27 27 27 27 26
18 18 18 17 17 16 16 16 16 16 15 17 17 17 19 20 21 22 21 23 24 24 23 21 22 26 27 29 31 30 30 31 32 33 34 35 33 30 29 29 28 27 28 30 32 32 32 32 31 32 32 31 33 36 39 42 43 43 40 39 38 33 26 21 22 24 21 20 18 17 23 27 26 26 26 26 26 24 23 23 24 26 27 28 28 27
17 18 17 16 15 14 13 14 15 14 14 17 18 18 20 19 20 21 20 22 23 20 20 22 22 24 28 31 31 30 29 27 27 29 30 31 31 30 30 30 28 27 27 29 31 32 31 31 29 30 31 30 31 35 38 40 42 42 42 42 41 36 29 22 18 20 20 18 14 15 22 26 25 24 23 23 21 19 20 20 20 22 23 25 27 29
14 13 12 13 11 11 12 13 14 14 13 15 17 19 20 19 19 21 20 21 20 18 18 20 22 25 27 27 26 26 26 25 25 27 28 28 29 29 29 29 28 27 28 30 32 32 31 30 28 28 30 29 30 34 37 39 40 41 42 43 43 40 34 26 18 15 16 16 14 15 21 23 23 22 22 22 21 19 19 18 16 16 16 18 21 25
17 14 13 13 9 8 10 12 13 14 14 15 17 20 20 19 21 21 20 20 19 18 18 19 21 23 24 24 23 23 23 23 24 25 26 26 26 28 27 27 28 26 27 30 32 32 31 30 28 28 29 29 30 33 37 39 38 39 41 42 43 42 37 30 24 19 16 16 15 17 20 21 21 22 21 22 22 20 18 16 14 13 13 14 16 17
17 15 15 13 9 7 10 11 12 13 15 16 17 18 20 21 21 20 20 20 19 19 18 18 20 20 20 23 23 23 23 23 24 25 25 25 24 26 27 27 28 26 25 27 30 30 29 28 28 28 29 29 30 33 35 37 37 39 40 40 41 43 41 36 30 27 21 18 18 18 19 19 20 23 23 21 22 21 18 15 14 14 15 16 17 17
13 13 11 9 8 9 11 12 12 13 15 17 16 16 19 20 19 18 19 19 19 20 18 17 20 20 20 23 25 25 24 23 24 24 24 24 24 25 27 28 28 26 24 25 27 27 27 27 27 29 28 28 30 33 34 36 37 38 39 39 40 42 43 39 33 28 24 21 21 21 19 18 17 22 24 22 22 22 19 16 15 15 16 17 16 16
9 11 9 8 9 9 10 12 14 15 16 17 17 16 17 17 17 18 18 15 16 18 16 15 18 19 21 23 24 25 24 23 24 24 24 24 24 24 26 27 27 26 25 25 25 25 26 26 28 29 28 28 30 33 34 35 35 37 37 37 39 40 40 38 34 29 25 22 23 23 21 18 15 19 23 22 22 22 19 17 16 15 15 14 14 16
4 7 8 8 11 11 11 14 15 14 14 17 18 16 16 17 18 18 16 14 14 14 13 15 17 19 22 22 22 23 23 23 24 23 24 25 24 24 25 26 26 26 26 25 25 25 26 27 28 29 29 28 30 32 34 35 35 36 36 35 37 38 36 34 32 30 26 23 23 24 22 19 17 17 21 23 23 22 20 18 16 16 15 13 13 16
4 6 7 9 12 13 13 14 14 13 14 16 16 14 15 17 18 17 15 15 15 14 13 16 17 18 18 19 21 21 20 19 19 20 22 24 25 25 25 26 26 25 25 25 25 24 25 27 28 29 28 26 28 31 34 35 35 35 35 34 35 36 33 31 31 30 27 25 24 24 23 21 19 19 20 23 25 25 23 21 18 16 15 14 13 14
6 7 8 9 11 12 13 13 13 14 13 13 13 12 15 17 16 16 15 15 16 14 12 14 17 16 15 16 20 20 17 16 16 18 21 23 25 26 27 26 26 25 24 23 24 23 25 28 28 28 27 25 27 30 33 35 36 36 35 34 35 34 31 30 30 31 28 25 24 25 24 23 23 22 22 24 27 28 28 27 24 21 18 18 17 15
7 8 9 10 11 12 12 12 12 13 12 11 11 13 14 15 16 16 15 15 15 12 11 15 16 14 13 15 15 13 12 12 13 16 18 21 24 26 27 26 25 25 24 22 22 23 24 27 27 26 26 24 26 28 31 33 36 37 36 34 33 32 31 30 31 31 30 27 26 26 26 26 26 26 26 27 28 29 29 30 29 25 22 21 21 20
7 8 9 10 11 13 13 14 13 11 11 10 10 12 13 14 15 15 14 15 16 12 12 14 13 13 13 13 11 10 10 10 12 12 13 15 17 18 21 23 25 25 24 21 21 22 24 26 26 24 24 24 25 27 29 31 34 36 36 34 33 31 30 30 30 31 31 30 29 28 29 28 28 28 29 29 30 30 30 31 31 29 25 24 24 23
7 8 9 10 11 13 14 14 13 11 10 9 9 10 12 14 15 14 13 13 13 12 11 11 10 10 10 9 8 9 10 11 12 11 10 11 12 10 11 14 17 20 20 20 20 22 23 24 24 22 22 22 24 26 28 29 31 33 34 34 33 31 30 30 30 31 32 32 32 31 31 31 30 30 31 31 32 31 31 31 31 31 29 28 27 27
7 8 9 10 12 12 13 13 13 11 9 9 10 10 11 14 14 13 12 12 11 10 11 11 8 7 8 8 8 8 9 10 11 10 10 11 10 6 7 9 11 14 17 18 19 21 22 23 23 22 22 21 22 25 27 28 29 30 31 32 31 30 30 30 30 30 32 33 33 33 33 33 33 32 32 33 33 33 33 32 32 31 30 30 30 30
6 6 7 10 12 12 13 13 12 10 8 8 9 9 9 11 13 13 13 11 9 8 9 10 9 7 7 7 8 9 9 9 10 10 11 13 13 8 2 6 9 13 15 16 17 18 20 21 23 23 22 20 20 23 26 28 29 29 29 30 29 29 29 30 31 31 31 32 33 34 35 35 34 34 34 34 34 34 34 34 34 33 33 33 33 32
5 5 6 9 11 12 13 13 11 9 7 7 8 8 9 10 11 13 12 10 8 7 7 9 10 9 7 6 7 8 8 7 7 8 9 10 12 11 8 4 1 6 11 13 13 14 15 17 20 22 22 21 20 22 25 27 28 28 28 28 28 27 28 29 30 30 30 31 32 33 33 34 34 35 35 34 35 35 35 35 35 35 35 35 35 34
5 5 5 7 10 11 12 12 10 8 7 7 7 8 10 11 11 11 11 9 8 7 7 8 10 9 8 8 8 7 9 9 8 7 7 7 8 8 8 7 6 3 3 5 7 8 8 10 13 17 19 21 21 21 23 26 27 28 28 27 27 27 27 28 29 29 30 30 31 32 32 33 34 35 35 35 36 36 36 37 37 37 36 36 36 35
4 4 5 7 8 10 11 11 9 8 6 6 7 8 10 12 11 10 9 9 9 8 8 9 11 8 6 7 8 9 10 10 9 8 8 6 6 5 5 5 4 3 1 1 2 3 4 5 7 10 13 17 20 21 23 24 26 27 27 27 27 26 26 27 28 29 29 30 31 32 32 33 34 35 36 36 36 37 37 37 38 38 38 37 37 37
4 4 4 6 7 9 10 10 9 7 6 5 6 8 11 12 11 11 10 9 10 10 9 10 12 10 8 8 10 10 10 10 9 10 9 8 8 7 6 5 5 3 2 3 4 4 4 3 4 5 7 10 14 17 20 22 24 25 26 27 27 27 27 27 28 28 29 30 31 32 33 34 35 35 36 36 37 37 38 38 38 39 39 39 38 38
4 3 4 4 5 8 10 10 9 7 5 4 4 6 10 11 11 11 12 11 11 11 10 11 13 13 11 11 12 11 11 12 12 12 11 10 9 9 9 8 7 7 6 7 7 7 6 6 6 5 5 6 8 12 15 18 20 22 24 25 26 27 27 27 27 27 28 29 30 31 33 34 34 35 36 37 37 38 39 39 39 39 39 39 39 39
5 3 3 4 4 6 8 9 9 7 5 3 3 5 9 11 12 13 13 13 12 12 12 14 15 14 13 13 14 14 13 14 15 15 14 12 10 11 12 11 10 11 11 10 10 9 8 8 9 9 8 7 8 9 10 12 15 18 20 22 23 24 25 26 26 26 26 27 28 30 31 32 33 34 35 36 37 38 39 39 40 40 40 40 40 40
5 4 4 4 3 4 5 7 8 7 5 4 4 7 9 12 14 15 15 15 15 15 15 17 17 16 15 15 17 16 14 15 16 16 15 14 13 14 14 13 12 12 11 10 10 9 9 9 9 10 10 11 11 10 10 11 12 14 15 17 18 20 21 23 24 24 24 25 26 27 28 30 32 33 34 35 36 37 38 38 39 40 41 41 41 41
5 5 4 4 3 3 4 5 7 6 6 4 4 8 10 13 15 16 17 17 17 17 17 18 18 18 18 19 18 16 15 16 16 16 15 15 14 14 13 12 10 10 9 9 9 9 10 10 9 9 11 12 13 13 13 13 13 14 14 15 16 17 18 19 20 20 21 22 23 24 25 26 28 31 32 34 35 36 37 38 38 39 40 41 41 41
6 5 4 4 4 4 3 4 5 6 5 4 3 6 9 13 15 17 18 19 19 19 19 20 20 20 21 21 18 15 16 17 16 14 12 12 10 9 8 8 9 10 11 11 11 10 10 10 10 10 10 11 13 14 15 15 15 15 16 16 17 17 18 18 19 20 20 21 22 22 23 24 26 28 30 32 34 35 37 38 38 39 40 40 41 41
8 7 6 6 6 5 4 4 4 5 5 3 3 4 7 11 13 15 17 18 19 19 20 20 20 20 20 19 15 12 13 13 11 10 8 8 7 7 9 10 11 12 11 10 9 9 9 8 9 9 9 10 12 14 15 15 15 15 15 16 16 17 18 18 19 20 21 22 23 23 24 25 25 26 28 29 30 32 34 36 37 38 40 41 41 42
10 9 8 8 8 6 6 6 6 7 7 6 5 6 7 8 10 12 14 16 16 17 17 17 18 17 17 15 10 7 9 10 9 8 8 8 10 10 11 12 12 11 10 9 7 7 8 8 7 7 7 7 9 12 14 15 16 16 16 16 16 17 17 18 19 20 21 21 22 23 24 25 26 27 27 28 28 29 30 31 32 34 35 37 39 41
12 12 10 10 10 8 8 9 9 10 10 7 6 7 8 9 10 11 13 14 14 15 15 15 16 15 15 13 9 7 9 11 9 7 8 11 12 11 11 11 11 9 8 7 6 6 6 6 6 6 5 5 6 9 11 13 14 15 16 17 17 18 18 19 19 20 20 21 22 23 24 25 26 27 28 28 28 28 28 28 29 29 30 32 34 36
12 13 12 12 11 10 11 11 10 11 13 10 8 9 10 10 11 12 14 14 13 14 15 15 16 16 15 14 11 10 12 12 9 7 9 11 11 10 10 9 8 7 6 6 5 5 5 5 5 5 4 4 4 5 6 8 9 10 12 13 15 17 18 19 19 20 20 20 21 22 23 24 26 27 28 28 29 29 29 29 29 29 29 29 30 31
11 11 12 13 13 12 13 12 12 14 15 12 10 12 12 11 11 12 13 13 12 12 13 13 13 14 14 13 11 11 13 12 9 8 8 8 7 6 5 3 2 2 2 2 2 2 2 2 2 2 2 3 3 4 4 5 5 6 7 8 10 11 13 15 17 18 19 19 19 19 19 20 21 22 23 25 26 27 28 29 29 30 30 30 30 30
11 10 11 13 13 13 13 12 12 15 14 11 11 13 13 12 11 12 12 12 11 11 10 10 10 10 9 9 7 7 7 6 5 4 3 2 1 0 1 2 2 2 3 3 3 3 3 3 2 2 2 1 1 1 1 2 2 3 4 5 6 7 8 10 12 13 15 16 16 17 17 17 17 17 17 18 20 21 23 25 26 27 29 30 30 31
11 10 10 11 11 12 13 12 13 14 13 11 12 13 12 12 11 12 13 11 9 8 6 5 5 3 3 3 1 1 1 1 2 2 2 2 2 2 1 1 1 2 2 2 2 2 2 2 2 2 2 2 1 1 1 0 1 1 2 2 3 3 4 5 6 8 10 11 12 13 14 14 14 14 15 15 16 17 19 20 22 23 24 26 27 27
12 11 10 10 11 12 13 13 14 14 12 12 14 14 12 12 11 9 8 5 2 1 1 1 1 2 2 2 3 3 2 2 2 2 1 1 1 1 0 0 1 1 1 1 1 1 1 1 1 1 1 0 0 1 1 2 2 2 2 2 3 3 3 3 4 5 6 7 8 9 9 10 11 11 12 13 14 15 16 17 19 20 21 22 23 24
13 12 12 12 11 11 13 13 12 11 10 11 13 12 11 10 8 5 3 1 2 1 1 2 1 1 1 1 2 1 1 1 0 0 0 1 1 1 1 1 2 2 2 1 1 1 1 1 1 1 1 1 1 1 1 2 3 3 3 4 4 5 5 5 5 6 6 7 7 8 8 9 9 10 11 11 12 13 14 15 16 18 18 19 20 21
13 12 13 14 12 12 13 12 9 9 9 10 11 10 9 8 6 4 3 2 2 1 1 1 1 2 2 2 2 2 3 3 3 3 3 3 3 4 3 3 4 4 4 3 3 3 2 2 2 2 2 1 1 1 1 1 1 2 2 3 4 5 5 6 6 7 8 8 9 9 10 11 11 12 13 13 14 14 15 16 16 17 18 18 19 20
11 12 13 14 13 13 14 13 11 11 11 10 10 10 8 7 6 5 4 4 3 3 3 3 4 4 4 4 5 5 6 6 6 6 6 6 6 6 6 6 6 6 6 5 5 4 4 4 3 3 3 3 2 2 2 2 2 2 2 3 3 3 4 4 5 6 6 7 8 9 10 11 12 14 15 15 16 17 18 18 19 19 20 20 21 21
11 11 13 15 15 14 15 15 14 13 12 11 10 9 8 8 7 6 5 5 5 5 5 5 6 6 6 7 7 8 9 9 9 9 8 8 8 8 8 8 8 8 7 7 6 5 5 5 4 4 4 4 4 4 4 4 4 4 4 4 4 4 4 4 4 5 5 6 7 8 9 10 11 12 14 15 16 17 17 18 19 19 20 20 21 21
10 10 12 14 14 14 15 15 13 12 12 10 9 9 9 8 7 6 6 6 6 6 7 7 8 8 8 9 9 10 10 11 11 11 11 10 10 10 10 10 9 9 9 8 7 7 6 6 5 5 5 5 5 5 5 5 5 5 4 4 4 4 4 4 5 5 5 6 6 7 8 9 10 11 11 12 13 14 14 15 16 16 16 17 17 18
8 9 11 12 12 12 13 13 12 11 10 9 9 10 9 8 7 8 8 8 8 8 8 9 9 9 10 10 11 11 12 13 13 13 12 12 12 12 11 11 11 11 10 10 9 8 7 7 7 6 6 6 6 6 5 5 5 5 5 5 5 5 5 6 6 6 7 7 7 8 8 8 9 10 10 11 11 11 12 12 12 13 13 13 13 14
8 9 10 10 10 11 12 12 10 9 9 8 8 8 8 8 8 9 9 9 10 10 10 10 11 11 11 12 12 12 13 13 13 14 13 13 12 12 11 11 11 11 11 11 10 9 9 8 8 7 7 6 7 6 6 6 6 6 6 6 6 6 7 7 7 7 7 7 7 8 8 8 8 9 9 9 9 9 10 10 10 11 11 11 11 12
11 10 9 8 8 9 10 10 8 8 9 8 8 9 9 9 10 10 11 11 11 12 12 12 12 12 12 12 12 12 13 13 13 13 13 12 11 11 10 10 10 10 10 10 10 9 9 8 8 7 7 7 7 7 7 6 6 6 7 7 7 7 7 7 7 7 6 6 6 6 6 6 6 6 6 7 7 7 7 7 7 8 8 9 9 9
Wind_Direction
233 223 217 212 191 211 219 199 211 218 211 211 204 210 219 215 218 217 242 261 263 257 250 247 239 222 237 252 262 265 260 261 264 263 264 264 263 262 263 264 265 266 266 266 266 266 265 264 262 260 259 258 255 253 253 252 252 253 257 258 255 257 264 272 274 262 246 236 225 215 213 213 215 220 225 227 222 217 218 221 221 222 224 225 224 221
240 226 222 225 214 221 227 219 227 229 221 226 224 227 233 222 207 212 240 267 270 260 245 241 236 222 237 254 264 267 267 267 267 266 264 263 264 264 263 265 266 267 268 267 267 267 265 264 263 260 258 256 253 251 250 250 249 248 252 253 251 254 255 257 266 256 232 226 221 214 213 215 217 218 220 223 219 214 216 219 220 221 223 223 223 221
239 226 232 242 236 233 237 239 242 238 233 238 239 240 239 230 228 227 221 237 260 265 259 247 240 234 249 260 264 266 270 270 268 267 265 264 264 264 263 264 266 267 267 267 268 268 266 265 264 260 258 255 252 251 249 247 245 245 248 250 251 252 248 247 256 251 230 217 214 214 214 216 219 218 219 222 214 205 210 217 217 219 221 222 222 220
240 237 244 250 247 242 240 242 245 246 245 244 244 244 242 235 241 237 218 228 255 264 262 257 252 243 253 264 266 266 269 269 269 268 266 265 264 264 264 264 264 266 266 266 268 269 269 267 264 260 257 253 250 249 247 245 243 244 246 250 258 257 249 251 257 248 230 217 213 215 217 219 222 221 221 222 209 196 204 214 216 218 220 221 221 220
247 248 252 252 250 246 246 249 251 252 250 248 245 243 243 243 246 242 237 248 259 265 273 276 263 252 257 270 273 272 273 271 269 267 266 266 265 264 264 263 264 265 266 267 268 271 271 270 267 261 255 251 249 246 245 245 244 244 244 248 260 259 248 253 256 242 227 220 219 220 221 222 223 223 223 222 209 197 204 213 216 219 221 222 222 222
255 256 255 251 251 250 253 256 257 257 254 254 253 245 243 247 250 250 252 261 265 270 279 279 269 263 263 271 273 274 275 271 266 266 265 264 265 264 264 264 264 264 266 268 268 269 270 269 267 262 255 250 248 245 242 244 244 245 244 243 251 256 251 254 254 240 225 221 222 223 222 221 220 222 223 218 208 201 207 214 217 220 221 222 223 224
259 263 258 251 253 254 256 259 260 261 258 257 258 250 247 250 255 259 262 265 270 274 277 276 274 269 261 262 268 270 269 267 267 269 267 265 263 261 262 263 263 263 265 267 267 267 267 266 265 263 256 251 248 245 240 241 242 243 242 238 243 251 251 249 249 243 230 223 223 224 224 221 218 218 217 211 204 202 209 212 215 217 219 222 224 225
261 262 259 253 254 256 257 259 260 260 258 255 255 253 254 256 259 263 266 269 272 272 272 270 268 268 263 255 258 263 264 265 269 271 271 266 258 256 260 261 261 261 260 263 265 266 265 265 264 261 256 251 248 244 239 238 238 239 240 238 239 245 247 245 243 243 236 226 225 225 224 221 217 213 211 207 203 204 210 210 211 213 216 220 223 225
258 256 259 258 258 258 257 259 260 260 257 252 254 258 262 263 262 264 267 269 270 269 269 264 260 265 264 257 257 260 261 261 263 267 270 264 257 267 272 266 263 261 258 260 264 265 265 263 262 260 255 251 248 244 240 238 235 235 237 236 235 238 244 247 241 240 240 229 225 226 224 222 217 213 210 210 208 209 211 209 209 212 216 219 222 224
260 259 260 259 258 260 260 262 262 263 260 257 261 266 266 265 266 267 267 268 265 263 264 261 257 260 260 260 259 257 258 260 262 268 271 266 265 275 279 272 267 264 262 260 262 264 264 263 261 258 254 249 246 244 240 238 236 234 234 232 232 235 240 242 235 237 242 230 221 224 225 222 218 214 213 213 214 214 211 208 209 213 218 221 223 224
260 258 256 254 255 258 261 265 267 266 264 263 266 268 267 266 265 264 263 262 258 258 262 260 256 259 260 262 260 254 258 265 268 272 272 269 269 270 272 273 270 268 265 262 260 261 262 261 260 256 252 247 242 241 239 238 236 234 232 229 228 232 240 243 234 230 233 225 219 220 219 216 212 212 213 211 211 213 210 207 209 214 218 221 224 226
259 257 253 253 253 253 258 263 265 263 262 266 268 266 264 263 262 261 258 256 256 257 259 255 253 257 258 261 264 263 264 267 268 268 267 267 269 267 268 271 269 264 262 260 259 257 257 259 259 255 251 244 238 238 237 236 236 234 231 228 225 227 234 239 229 224 225 223 220 215 210 209 208 209 210 206 204 206 206 206 208 212 216 219 221 224
266 262 254 253 251 251 256 260 262 261 260 264 264 261 259 258 258 257 257 259 258 255 255 253 253 256 255 258 264 267 269 269 267 265 263 263 265 268 268 266 262 258 257 259 258 254 253 255 256 254 249 241 234 235 235 235 235 234 231 229 226 225 228 228 219 219 222 222 219 204 200 205 206 205 205 202 201 199 202 206 208 211 215 218 221 223
275 272 258 256 259 260 259 257 262 266 264 264 264 262 258 250 249 253 257 259 257 259 261 259 258 260 260 265 270 271 273 275 271 267 264 262 263 265 264 262 260 258 256 258 258 254 252 252 253 251 246 238 230 231 233 233 233 233 233 231 228 226 227 225 218 219 225 228 226 204 198 201 200 200 202 202 199 194 197 203 204 206 210 215 221 227
274 279 273 269 267 268 268 263 266 272 272 270 267 266 262 251 248 254 256 254 256 261 262 261 264 265 266 274 276 272 272 274 273 270 268 266 263 260 261 263 264 263 260 259 258 255 252 251 250 247 243 235 228 228 231 231 230 231 232 232 230 227 226 226 230 241 243 241 236 217 208 207 198 193 197 201 197 190 192 198 197 196 197 201 207 215
273 272 272 269 259 264 278 275 275 278 278 278 272 265 262 257 255 256 254 253 257 260 264 272 274 271 271 278 283 280 277 277 276 275 273 271 267 261 260 262 264 265 264 260 259 256 251 249 247 244 241 232 225 226 229 229 228 228 230 231 230 228 227 229 237 245 247 248 246 232 223 222 210 201 202 204 198 190 190 196 195 195 197 197 196 197
265 261 267 274 267 270 282 281 283 284 282 284 279 266 261 258 252 252 253 254 256 259 269 277 273 275 282 285 290 290 285 282 280 279 277 275 272 266 261 260 262 264 264 262 261 256 249 246 243 241 238 228 222 224 228 229 227 226 229 230 230 229 229 231 237 241 242 247 251 244 235 232 221 208 205 206 201 196 198 199 194 194 196 197 199 197
255 254 264 284 285 281 286 287 288 289 284 282 275 265 260 251 243 246 250 251 256 263 270 267 265 281 293 290 289 288 284 284 283 280 278 275 272 269 264 261 261 262 263 262 261 256 249 243 240 239 234 225 219 220 225 228 227 226 228 229 230 231 230 231 234 235 237 242 246 246 241 237 228 211 206 207 201 196 197 198 196 196 196 201 210 205
260 260 268 287 294 293 293 290 289 288 284 279 273 267 258 244 236 240 244 246 255 265 270 269 274 288 295 293 292 291 288 286 283 278 276 273 270 268 266 264 263 261 261 259 258 255 249 242 238 237 232 222 217 218 222 226 226 226 227 227 230 232 231 230 230 230 234 237 240 242 242 240 237 224 214 213 208 201 200 204 207 208 209 214 216 212
285 282 288 294 299 299 294 293 294 291 287 280 273 263 250 240 235 238 241 245 253 261 268 277 285 291 294 295 296 295 294 291 286 282 277 274 269 265 263 263 262 261 258 256 254 252 249 243 237 235 231 220 213 215 219 222 225 226 226 226 228 231 231 228 226 228 232 235 235 237 239 238 239 234 225 220 218 216 218 225 227 225 228 233 230 227
295 298 300 297 298 296 292 297 300 294 289 282 271 257 243 235 232 233 236 245 252 256 267 282 292 295 295 297 297 296 294 295 296 291 283 275 269 263 260 259 260 258 256 253 250 247 247 244 238 234 230 217 209 212 216 219 222 224 225 225 227 230 231 228 225 228 234 237 235 236 237 236 234 234 232 228 225 224 228 235 240 243 248 254 255 253
298 302 302 302 303 299 298 307 306 294 287 278 262 252 239 229 227 227 231 246 254 258 272 282 292 304 304 302 308 312 311 313 315 307 294 281 270 263 258 257 256 254 253 250 245 241 243 245 241 235 229 216 205 208 213 217 219 222 224 224 226 229 229 229 226 227 232 237 237 237 239 239 236 234 233 233 233 232 233 237 241 246 254 258 260 262
304 302 302 308 311 308 308 313 310 299 293 282 261 248 235 227 229 228 231 246 253 260 278 281 286 305 313 314 325 339 344 343 338 328 316 301 285 269 257 253 252 251 249 244 237 234 238 244 244 239 231 219 206 204 210 214 217 220 222 223 224 226 227 228 227 226 229 233 236 237 239 241 241 240 238 238 239 239 240 242 245 249 255 257 257 262
304 301 305 316 316 311 311 310 306 302 295 283 267 251 237 231 232 232 235 247 252 259 280 289 292 303 312 319 330 340 349 352 348 345 341 330 312 283 256 246 243 242 239 234 230 229 233 240 243 240 234 223 210 204 206 210 213 217 220 222 222 222 223 225 226 225 226 229 234 237 239 242 243 244 244 244 244 245 245 247 249 252 255 257 257 260
300 299 307 320 322 318 316 310 304 303 296 277 266 256 242 235 231 231 239 250 255 260 273 285 298 317 321 320 321 331 346 354 357 359 0 358 349 305 253 239 230 227 228 229 229 226 227 233 235 237 239 229 215 207 205 207 210 213 217 219 220 219 219 220 223 224 224 227 230 234 237 240 242 244 245 247 249 250 250 251 253 254 255 256 257 259
298 299 308 321 325 324 323 317 307 304 295 272 260 250 238 232 227 228 238 249 255 260 267 277 293 313 322 318 311 320 338 351 356 358 1 10 19 21 304 234 226 224 226 228 228 225 224 226 227 232 238 234 221 212 208 206 208 211 213 216 216 215 215 216 219 221 223 225 227 230 233 237 240 243 245 247 250 252 253 254 255 255 256 256 257 259
303 306 314 324 325 324 325 323 316 308 293 268 255 241 228 226 226 229 238 251 260 262 267 282 294 298 302 311 308 307 319 334 345 350 356 7 17 26 33 39 182 210 215 216 219 221 223 224 226 228 231 232 226 218 212 209 208 210 212 215 215 213 211 213 216 218 220 223 226 229 231 234 238 241 243 245 247 250 252 254 255 256 256 257 258 259
312 311 319 328 327 326 330 330 322 314 299 274 259 243 230 228 228 230 239 252 262 265 265 279 293 299 299 308 314 308 307 317 327 332 342 359 10 16 21 26 40 75 174 197 206 213 215 219 225 227 226 227 225 219 215 213 211 211 213 215 217 216 213 212 214 216 218 220 224 227 230 232 235 238 240 242 245 247 250 252 255 256 257 258 259 260
319 315 324 334 331 330 338 339 329 320 311 286 265 246 236 233 231 234 241 245 251 260 262 272 292 302 288 293 311 312 307 313 320 320 322 333 341 343 346 350 3 20 17 275 236 221 213 211 217 221 221 222 222 218 215 214 214 214 215 217 219 220 217 215 215 216 218 219 222 225 228 231 233 236 239 241 243 245 248 250 253 255 256 258 259 259
316 322 331 338 337 335 342 348 343 330 322 306 273 246 237 234 232 235 240 239 244 256 262 272 287 289 274 282 297 299 300 306 310 310 312 316 317 314 312 314 317 313 287 271 265 251 242 239 226 219 215 215 218 217 215 216 217 218 219 220 221 223 223 221 219 219 220 220 222 225 227 230 233 236 239 242 243 245 246 248 250 252 255 256 257 257
303 319 335 342 341 338 343 352 354 344 332 323 288 248 236 233 233 235 238 241 246 255 264 269 274 277 280 288 290 289 295 299 299 300 301 300 298 296 297 298 297 292 283 275 270 261 257 258 254 246 230 220 220 218 215 217 219 221 224 225 226 228 229 229 227 225 224 223 224 225 227 230 232 235 238 241 243 245 246 248 249 251 252 254 255 256
288 297 323 337 340 340 344 353 359 356 341 316 268 240 235 234 236 239 240 243 247 254 263 267 270 276 283 287 289 291 294 294 295 298 297 291 287 287 291 293 292 289 287 285 283 278 269 259 254 254 246 235 232 226 219 219 220 223 226 228 231 233 235 236 236 234 232 230 228 227 227 229 231 233 236 239 242 245 246 248 250 251 252 253 255 256
278 282 299 321 338 344 346 348 352 355 348 323 258 234 233 234 238 242 243 247 251 254 259 265 271 278 281 283 288 294 298 296 295 295 295 294 292 289 288 289 289 289 290 291 293 292 288 279 266 258 251 242 237 234 229 225 223 223 224 226 229 232 234 238 240 240 240 238 237 235 234 234 234 235 237 239 241 244 246 248 249 251 253 254 255 256
264 269 282 298 310 321 333 338 339 345 351 335 270 242 241 242 243 246 250 253 257 260 265 269 273 278 280 282 287 294 298 296 292 292 293 292 288 283 282 283 284 288 293 296 297 296 293 291 285 272 259 249 242 238 235 233 229 226 225 224 225 226 228 231 234 237 240 240 240 240 240 240 240 241 241 242 243 244 246 247 249 250 252 253 254 255
260 264 275 286 292 298 313 326 327 330 339 334 277 249 247 248 248 251 255 258 260 265 270 272 273 276 278 281 287 292 292 290 290 292 291 286 282 281 284 288 291 294 295 296 296 293 288 284 282 276 266 256 247 241 237 236 235 232 230 228 227 226 226 227 229 232 235 237 238 239 240 241 243 244 245 246 247 247 247 248 248 249 250 251 252 254
256 257 259 271 280 284 285 288 302 315 316 304 274 253 245 245 247 252 256 258 260 263 265 267 271 274 276 280 287 289 286 284 283 283 282 282 286 290 294 297 299 297 295 292 289 287 284 277 272 271 268 259 251 245 240 239 238 236 235 233 232 231 231 231 232 233 234 236 238 240 241 242 243 244 246 248 249 250 251 251 251 251 251 251 251 252
255 257 257 261 269 272 272 270 276 287 288 277 264 258 249 246 248 252 257 260 261 262 265 266 268 271 273 276 279 279 276 274 274 279 284 284 284 286 291 294 295 294 292 291 287 286 287 282 272 267 262 254 248 244 241 239 239 239 240 239 238 238 238 237 237 238 239 240 242 244 245 247 248 248 249 250 251 252 253 254 254 255 255 255 254 254
255 257 257 256 258 260 263 265 270 275 274 268 261 259 256 254 254 257 262 264 262 262 266 267 267 270 273 274 274 273 270 268 272 282 285 283 283 286 287 287 287 287 289 291 291 290 290 289 285 278 265 251 243 240 238 239 240 242 244 244 245 245 245 245 245 246 246 247 249 251 252 253 255 255 256 256 255 255 255 255 255 256 256 257 257 257
256 257 256 255 256 258 260 264 266 266 266 268 269 265 261 261 262 263 265 268 267 264 263 265 267 269 273 275 276 273 267 267 273 277 275 278 283 284 282 282 285 289 293 295 295 293 289 285 286 288 284 272 259 251 246 241 238 240 243 245 248 249 249 249 249 250 251 253 254 255 257 258 259 260 260 261 261 260 260 259 258 258 258 258 258 258
263 259 254 253 255 256 258 263 264 262 263 270 273 268 265 267 270 269 268 272 276 272 266 266 269 271 274 277 275 269 267 271 275 273 271 276 281 282 287 296 310 330 355 358 338 331 327 312 302 298 292 282 276 274 269 263 256 250 248 249 251 252 251 250 249 249 251 254 256 257 258 260 260 261 261 262 262 262 262 262 262 262 261 261 261 261
265 262 255 253 255 256 257 258 260 263 265 268 268 266 267 270 275 277 278 281 282 278 273 272 274 275 278 281 277 269 269 270 263 254 253 259 275 24 56 62 67 63 65 66 62 59 55 48 48 50 51 43 1 319 285 274 267 257 254 256 257 256 253 250 249 249 250 252 254 257 259 261 263 263 263 262 262 262 262 263 263 263 264 264 264 265
262 260 256 256 256 259 262 261 261 267 268 264 262 261 264 272 281 285 288 289 285 280 277 275 276 278 277 278 282 152 163 152 148 141 124 117 109 90 77 60 51 51 51 48 50 57 60 59 63 64 64 65 68 78 97 128 184 192 217 238 248 249 248 244 244 244 246 249 251 254 257 260 263 264 264 264 263 262 262 262 263 263 264 264 265 265
258 256 256 258 257 260 266 269 270 271 266 257 255 255 260 274 285 287 286 287 277 257 220 144 131 113 114 101 86 92 104 110 115 111 101 102 89 80 78 353 357 1 17 23 18 20 25 29 43 50 48 52 224 212 203 211 214 209 209 214 224 231 231 231 233 234 237 241 244 246 250 253 256 259 260 261 261 261 262 262 262 262 263 263 263 264
255 257 257 258 255 253 261 269 273 272 264 256 254 255 263 274 276 266 256 222 150 152 126 114 120 117 103 75 57 33 343 335 272 260 272 282 292 296 295 304 313 317 327 326 314 337 355 355 10 21 19 22 1 284 240 229 230 229 229 230 232 235 236 239 242 243 245 246 248 251 254 257 258 260 261 263 263 263 264 264 264 265 265 266 266 267
255 255 254 255 253 250 255 261 263 264 265 258 252 255 262 260 243 220 220 230 225 230 252 274 283 306 328 331 325 310 303 301 296 293 287 279 280 283 288 295 300 303 305 305 304 313 321 319 324 327 327 339 337 318 306 290 270 257 248 246 246 244 246 247 247 250 254 256 258 261 263 265 267 268 269 270 271 271 271 270 270 270 271 271 272 272
255 252 251 252 249 247 251 254 254 255 256 251 248 249 245 229 214 216 233 246 257 271 283 285 288 296 301 299 297 295 292 291 291 291 288 285 283 283 284 287 289 289 291 293 293 297 298 299 299 297 296 293 287 282 284 284 287 289 285 282 277 269 263 259 255 255 256 257 260 263 265 267 269 270 272 272 272 273 273 273 274 274 275 275 276 276
256 252 249 248 245 245 249 253 253 252 251 250 247 237 220 211 215 226 236 245 259 272 280 284 287 289 290 289 291 291 290 290 289 287 285 284 283 283 283 283 282 282 282 283 284 285 286 287 287 286 285 283 280 276 272 270 273 278 282 286 287 282 277 272 267 263 261 260 262 264 266 268 269 270 272 273 274 275 276 276 277 277 277 278 279 279
260 253 246 244 243 242 243 244 243 245 249 246 233 217 209 215 227 237 245 257 267 275 280 283 284 286 289 290 289 288 287 286 284 282 281 280 279 280 281 280 280 279 278 278 277 277 276 276 278 278 279 280 280 278 274 270 266 265 267 269 269 268 265 264 263 262 262 262 262 262 263 265 267 268 269 271 272 273 275 276 278 279 280 281 282 283
263 250 241 241 240 237 238 240 240 240 238 228 214 211 218 228 239 250 260 270 276 281 285 287 288 289 290 291 290 289 287 285 285 284 283 281 279 278 278 278 278 277 276 276 276 275 275 276 277 277 278 279 280 279 277 273 266 259 255 253 251 251 251 253 257 261 262 262 263 262 262 262 262 263 263 264 265 265 265 268 271 273 276 278 280 283
259 249 246 246 242 234 233 238 237 229 222 215 212 222 235 243 251 262 272 278 284 288 290 291 293 294 293 292 291 291 292 291 291 291 289 287 286 284 281 279 277 275 274 273 273 273 274 275 275 277 278 277 277 276 272 268 262 255 250 245 242 244 248 253 258 260 261 261 259 258 257 257 256 255 255 255 256 257 257 259 262 266 270 273 275 279
252 250 251 247 240 232 229 231 227 219 217 221 229 239 247 254 261 269 275 281 287 291 293 294 295 295 294 293 293 294 295 295 295 295 295 295 294 291 288 283 279 275 273 273 274 276 277 276 275 274 272 271 270 270 267 261 254 248 244 242 240 242 247 252 255 253 250 249 248 247 248 248 246 244 243 243 246 250 255 257 259 263 269 274 278 282
Height
5746 5747 5748 5750 5751 5752 5752 5753 5754 5754 5755 5757 5758 5760 5761 5763 5766 5767 5765 5760 5759 5761 5763 5763 5765 5768 5765 5761 5761 5763 5766 5767 5767 5768 5768 5766 5766 5766 5763 5762 5763 5764 5766 5766 5766 5767 5769 5771 5773 5775 5777 5780 5782 5783 5785 5787 5789 5790 5792 5794 5794 5795 5796 5795 5793 5791 5792 5795 5798 5799 5800 5802 5806 5810 5813 5815 5818 5822 5825 5827 5829 5831 5833 5835 5836 5838
5745 5746 5747 5748 5748 5748 5749 5750 5751 5752 5754 5755 5756 5757 5758 5760 5763 5765 5764 5761 5757 5756 5760 5760 5762 5764 5762 5760 5760 5760 5762 5763 5763 5764 5765 5763 5763 5762 5761 5760 5761 5762 5763 5763 5763 5764 5767 5768 5770 5772 5774 5776 5779 5780 5781 5783 5785 5787 5789 5790 5791 5792 5793 5793 5791 5789 5788 5790 5794 5797 5798 5799 5803 5807 5810 5812 5815 5818 5821 5824 5826 5829 5831 5833 5835 5837
5743 5744 5745 5745 5745 5746 5748 5748 5750 5751 5752 5753 5754 5755 5756 5758 5760 5761 5762 5760 5755 5753 5757 5758 5759 5760 5757 5757 5758 5757 5759 5759 5760 5760 5760 5760 5759 5758 5757 5758 5759 5759 5759 5760 5760 5761 5763 5765 5767 5769 5770 5773 5775 5776 5778 5779 5780 5782 5784 5784 5786 5787 5788 5789 5788 5788 5787 5788 5791 5795 5797 5799 5802 5805 5808 5810 5812 5814 5818 5821 5823 5826 5828 5831 5833 5835
5742 5743 5743 5743 5744 5745 5746 5747 5748 5749 5750 5751 5752 5752 5754 5756 5756 5756 5756 5755 5753 5752 5755 5755 5757 5758 5755 5754 5755 5755 5756 5756 5756 5757 5757 5757 5755 5754 5754 5755 5756 5755 5755 5757 5758 5758 5760 5761 5763 5765 5767 5769 5771 5773 5775 5775 5775 5778 5780 5781 5782 5784 5785 5787 5787 5787 5788 5790 5791 5794 5797 5800 5803 5805 5807 5809 5810 5811 5815 5818 5821 5824 5827 5829 5832 5834
5741 5741 5742 5743 5743 5744 5744 5745 5746 5747 5748 5748 5749 5750 5751 5752 5751 5751 5751 5751 5751 5752 5752 5753 5754 5754 5753 5751 5751 5751 5752 5753 5753 5754 5753 5753 5752 5750 5750 5751 5752 5752 5752 5753 5755 5756 5757 5757 5758 5761 5763 5765 5767 5770 5771 5772 5773 5775 5777 5779 5781 5782 5784 5787 5787 5786 5787 5790 5791 5793 5796 5798 5801 5803 5806 5809 5810 5810 5813 5817 5820 5823 5826 5828 5831 5833
5740 5740 5741 5742 5742 5743 5743 5744 5744 5744 5745 5745 5746 5746 5747 5747 5747 5748 5749 5749 5749 5749 5750 5751 5751 5751 5751 5749 5748 5748 5749 5749 5749 5750 5750 5749 5749 5747 5746 5747 5748 5748 5748 5749 5751 5753 5754 5753 5753 5756 5759 5761 5763 5765 5768 5770 5771 5772 5776 5778 5779 5781 5783 5785 5786 5785 5785 5788 5790 5791 5793 5795 5797 5800 5804 5808 5809 5810 5813 5816 5819 5823 5825 5827 5830 5832
5739 5739 5739 5740 5740 5741 5741 5742 5742 5742 5743 5743 5743 5743 5743 5744 5745 5746 5747 5747 5747 5747 5748 5748 5747 5748 5750 5748 5746 5745 5745 5744 5744 5745 5745 5745 5744 5743 5743 5743 5744 5744 5744 5745 5747 5749 5750 5750 5750 5752 5755 5757 5758 5761 5766 5768 5769 5771 5774 5775 5776 5779 5781 5782 5784 5784 5785 5786 5788 5789 5791 5794 5796 5798 5801 5804 5806 5808 5810 5814 5818 5821 5824 5827 5829 5831
5738 5738 5738 5738 5738 5739 5739 5740 5740 5740 5741 5741 5740 5740 5742 5743 5743 5744 5745 5745 5745 5745 5745 5746 5745 5745 5746 5745 5743 5742 5741 5740 5741 5742 5742 5741 5741 5741 5741 5740 5740 5741 5741 5741 5744 5746 5747 5747 5747 5748 5751 5752 5753 5757 5762 5764 5766 5769 5772 5772 5774 5777 5778 5779 5782 5783 5784 5784 5785 5787 5789 5791 5794 5796 5800 5802 5805 5808 5809 5811 5815 5819 5822 5825 5827 5830
5736 5736 5736 5736 5736 5737 5737 5737 5738 5738 5739 5738 5738 5739 5741 5741 5742 5742 5742 5743 5743 5743 5743 5743 5743 5743 5742 5740 5740 5739 5737 5738 5740 5740 5739 5739 5739 5739 5739 5738 5738 5738 5737 5738 5741 5742 5743 5744 5744 5745 5747 5749 5750 5753 5757 5760 5763 5767 5769 5770 5773 5776 5776 5777 5780 5781 5781 5782 5784 5786 5787 5789 5791 5794 5797 5800 5803 5807 5808 5809 5813 5817 5819 5822 5825 5827
5734 5734 5734 5734 5734 5735 5735 5735 5736 5736 5737 5736 5736 5738 5739 5739 5739 5740 5740 5740 5740 5739 5739 5740 5741 5740 5738 5736 5737 5736 5734 5735 5737 5737 5736 5736 5737 5737 5736 5735 5735 5735 5735 5736 5738 5739 5739 5741 5741 5742 5744 5746 5747 5749 5753 5756 5760 5764 5766 5767 5770 5774 5775 5776 5778 5778 5779 5781 5783 5784 5785 5787 5790 5792 5794 5797 5800 5803 5806 5807 5811 5815 5817 5820 5823 5825
5732 5732 5731 5732 5732 5733 5733 5734 5734 5735 5735 5735 5736 5737 5737 5737 5737 5737 5737 5737 5736 5735 5736 5738 5737 5735 5734 5733 5732 5733 5732 5733 5734 5733 5732 5732 5733 5733 5733 5732 5731 5732 5733 5733 5734 5736 5736 5737 5739 5739 5741 5743 5744 5746 5749 5753 5756 5759 5763 5765 5768 5771 5773 5774 5776 5777 5778 5780 5780 5781 5783 5786 5789 5791 5793 5795 5797 5800 5803 5806 5808 5811 5814 5817 5821 5823
5729 5729 5729 5730 5730 5731 5731 5732 5732 5733 5734 5733 5734 5734 5734 5734 5734 5733 5733 5733 5732 5733 5734 5735 5734 5732 5731 5728 5727 5729 5731 5731 5731 5731 5730 5729 5728 5729 5730 5729 5729 5730 5730 5730 5731 5732 5734 5735 5736 5737 5738 5741 5741 5742 5746 5749 5751 5755 5759 5762 5765 5769 5771 5773 5774 5775 5778 5779 5778 5780 5783 5786 5787 5789 5791 5794 5796 5798 5801 5804 5806 5808 5810 5814 5817 5820
5728 5728 5728 5728 5728 5729 5730 5730 5730 5731 5732 5732 5732 5732 5731 5731 5730 5730 5730 5729 5729 5730 5731 5730 5730 5729 5727 5725 5725 5727 5728 5729 5728 5728 5727 5726 5725 5726 5726 5726 5726 5727 5727 5727 5728 5729 5731 5732 5734 5735 5735 5738 5739 5739 5742 5745 5748 5752 5756 5759 5763 5766 5769 5771 5772 5773 5776 5778 5778 5780 5782 5783 5785 5786 5789 5793 5795 5797 5800 5802 5805 5806 5808 5811 5814 5816
5726 5726 5726 5727 5727 5728 5728 5729 5728 5728 5729 5729 5729 5729 5728 5728 5727 5727 5727 5727 5727 5727 5728 5728 5727 5725 5723 5723 5725 5725 5726 5726 5725 5724 5724 5723 5723 5722 5722 5722 5722 5724 5724 5724 5724 5726 5727 5729 5730 5732 5733 5735 5737 5737 5739 5741 5745 5749 5752 5755 5759 5763 5766 5768 5769 5771 5773 5776 5777 5779 5780 5781 5782 5785 5789 5791 5792 5795 5798 5801 5803 5805 5807 5810 5812 5814
5724 5724 5725 5725 5726 5726 5727 5727 5727 5727 5727 5727 5726 5726 5725 5725 5724 5724 5725 5725 5725 5725 5725 5725 5724 5723 5721 5722 5723 5723 5723 5723 5722 5721 5720 5720 5720 5719 5718 5718 5719 5720 5722 5721 5721 5723 5725 5725 5727 5728 5730 5733 5735 5735 5736 5738 5742 5747 5749 5752 5756 5760 5763 5766 5767 5769 5771 5774 5776 5778 5779 5780 5782 5785 5787 5788 5790 5793 5796 5799 5801 5803 5805 5807 5809 5812
5722 5723 5723 5723 5724 5725 5725 5725 5725 5725 5724 5724 5724 5723 5723 5722 5722 5723 5722 5722 5723 5722 5723 5722 5721 5720 5720 5719 5718 5718 5718 5719 5718 5717 5717 5716 5716 5716 5716 5715 5715 5717 5718 5718 5718 5720 5722 5722 5724 5725 5727 5731 5733 5733 5734 5736 5740 5744 5746 5750 5754 5758 5761 5764 5766 5767 5770 5772 5774 5777 5778 5778 5780 5783 5784 5787 5789 5792 5795 5798 5800 5801 5803 5805 5806 5808
5721 5721 5722 5722 5722 5723 5723 5723 5723 5723 5722 5721 5720 5720 5720 5719 5720 5720 5720 5721 5721 5720 5721 5720 5717 5718 5718 5716 5716 5715 5714 5714 5714 5714 5713 5713 5713 5713 5712 5712 5712 5713 5715 5715 5715 5717 5718 5719 5721 5722 5724 5728 5730 5731 5731 5733 5737 5741 5744 5748 5751 5755 5759 5762 5765 5767 5769 5771 5773 5774 5776 5776 5778 5781 5783 5786 5789 5792 5795 5797 5799 5801 5802 5804 5806 5807
5720 5721 5721 5721 5720 5721 5721 5720 5720 5720 5719 5718 5717 5717 5717 5717 5717 5718 5718 5719 5720 5719 5720 5718 5715 5715 5716 5715 5714 5713 5712 5712 5711 5710 5710 5709 5709 5709 5709 5709 5709 5710 5711 5712 5712 5713 5715 5716 5718 5719 5721 5724 5727 5729 5729 5731 5735 5738 5742 5745 5749 5753 5757 5761 5764 5766 5767 5769 5771 5772 5774 5775 5777 5780 5782 5784 5788 5791 5794 5796 5798 5800 5801 5803 5805 5806
5719 5720 5720 5719 5719 5719 5719 5718 5718 5717 5717 5715 5715 5715 5715 5715 5715 5716 5716 5717 5718 5718 5718 5716 5715 5715 5714 5712 5712 5711 5710 5709 5708 5708 5707 5706 5706 5706 5705 5705 5706 5706 5708 5708 5709 5710 5712 5713 5715 5716 5718 5721 5724 5726 5728 5729 5732 5736 5739 5743 5747 5750 5755 5759 5762 5764 5766 5768 5770 5771 5772 5774 5777 5779 5782 5784 5786 5789 5792 5794 5796 5798 5800 5802 5803 5805
5719 5719 5719 5719 5718 5718 5718 5717 5716 5715 5714 5713 5713 5713 5713 5713 5714 5714 5715 5716 5716 5716 5716 5715 5714 5713 5712 5711 5710 5708 5707 5706 5705 5705 5704 5703 5703 5702 5702 5702 5702 5703 5704 5705 5706 5707 5709 5710 5712 5713 5715 5719 5722 5724 5725 5727 5730 5734 5737 5741 5745 5748 5752 5757 5760 5762 5763 5766 5768 5769 5771 5773 5775 5778 5781 5783 5786 5788 5790 5791 5793 5795 5797 5799 5801 5803
5719 5718 5718 5718 5717 5717 5716 5715 5714 5713 5712 5711 5710 5710 5710 5711 5712 5713 5714 5715 5715 5715 5714 5713 5712 5711 5711 5710 5708 5707 5706 5704 5703 5702 5701 5700 5700 5699 5699 5699 5699 5700 5701 5703 5704 5705 5706 5707 5709 5710 5712 5716 5719 5721 5723 5725 5728 5731 5735 5739 5742 5746 5750 5754 5757 5759 5761 5763 5765 5767 5769 5771 5774 5776 5779 5781 5784 5787 5789 5789 5790 5792 5793 5794 5796 5799
5719 5718 5717 5717 5716 5715 5714 5714 5712 5711 5710 5709 5709 5709 5709 5710 5711 5711 5713 5714 5714 5713 5713 5712 5710 5709 5709 5708 5707 5705 5704 5702 5701 5700 5698 5697 5696 5696 5696 5697 5697 5697 5699 5700 5702 5703 5704 5705 5707 5708 5711 5714 5717 5719 5721 5723 5726 5729 5732 5736 5741 5744 5748 5751 5754 5757 5758 5760 5762 5765 5767 5769 5772 5774 5776 5778 5780 5783 5786 5787 5789 5791 5792 5793 5793 5795
5718 5717 5717 5716 5715 5714 5712 5711 5710 5709 5708 5708 5708 5708 5708 5709 5709 5710 5711 5712 5712 5712 5712 5711 5710 5709 5708 5707 5705 5704 5703 5702 5700 5699 5697 5694 5693 5692 5693 5694 5695 5695 5696 5698 5700 5701 5702 5703 5705 5707 5709 5711 5714 5716 5718 5720 5723 5726 5730 5734 5738 5742 5745 5748 5751 5754 5756 5758 5759 5762 5764 5766 5769 5771 5774 5775 5777 5778 5780 5782 5785 5787 5790 5792 5792 5793
5717 5717 5716 5715 5714 5713 5711 5710 5708 5708 5707 5706 5706 5707 5707 5708 5708 5709 5710 5711 5711 5710 5710 5710 5709 5708 5707 5706 5705 5704 5703 5702 5700 5699 5697 5694 5692 5691 5691 5692 5692 5693 5695 5696 5698 5699 5700 5702 5703 5705 5706 5709 5712 5714 5716 5718 5721 5724 5727 5731 5735 5739 5742 5745 5748 5751 5754 5755 5757 5759 5761 5763 5766 5768 5770 5772 5774 5776 5778 5779 5781 5783 5785 5788 5789 5790
5717 5716 5715 5714 5713 5712 5710 5709 5708 5707 5706 5705 5705 5705 5706 5707 5707 5708 5709 5709 5709 5709 5709 5709 5707 5707 5707 5706 5705 5704 5703 5702 5701 5699 5697 5695 5692 5691 5691 5691 5692 5692 5694 5696 5697 5698 5699 5700 5702 5703 5705 5707 5710 5712 5713 5716 5719 5722 5725 5728 5732 5736 5739 5742 5745 5748 5750 5753 5755 5757 5759 5760 5763 5765 5767 5769 5771 5773 5775 5777 5779 5781 5783 5784 5786 5787
5716 5715 5714 5713 5712 5711 5709 5708 5707 5706 5705 5705 5704 5704 5705 5706 5707 5707 5708 5708 5708 5708 5708 5708 5707 5707 5707 5706 5705 5704 5703 5702 5701 5700 5698 5696 5694 5692 5691 5691 5692 5692 5694 5695 5696 5697 5698 5699 5700 5701 5703 5705 5707 5709 5711 5713 5716 5719 5722 5725 5729 5733 5736 5739 5742 5744 5747 5750 5752 5754 5756 5758 5760 5762 5764 5766 5768 5769 5771 5773 5775 5777 5779 5781 5783 5784
5715 5714 5713 5712 5711 5710 5709 5707 5706 5705 5704 5704 5704 5704 5705 5705 5706 5706 5707 5707 5708 5708 5708 5707 5707 5707 5707 5706 5705 5704 5703 5702 5701 5700 5699 5698 5696 5695 5693 5692 5692 5693 5693 5694 5695 5696 5697 5698 5698 5699 5701 5703 5705 5707 5709 5711 5714 5716 5720 5723 5726 5730 5734 5736 5739 5741 5744 5747 5749 5751 5753 5755 5757 5759 5761 5763 5764 5766 5767 5769 5771 5773 5775 5777 5779 5781
5714 5713 5713 5712 5711 5709 5708 5707 5705 5704 5704 5703 5703 5704 5704 5705 5705 5706 5707 5707 5707 5707 5707 5707 5706 5706 5705 5703 5704 5704 5703 5701 5701 5700 5700 5699 5698 5697 5696 5694 5694 5693 5694 5694 5695 5696 5696 5696 5697 5698 5699 5701 5702 5705 5707 5709 5711 5714 5717 5720 5723 5727 5730 5733 5736 5738 5741 5743 5746 5748 5750 5752 5754 5755 5757 5759 5760 5762 5763 5765 5766 5768 5770 5773 5775 5777
5713 5713 5712 5711 5710 5709 5708 5706 5705 5704 5703 5703 5703 5703 5704 5704 5704 5706 5706 5707 5707 5707 5706 5706 5706 5705 5704 5703 5703 5703 5702 5701 5700 5699 5699 5699 5699 5698 5697 5696 5696 5695 5695 5695 5695 5696 5696 5696 5696 5697 5698 5699 5701 5703 5705 5707 5709 5711 5714 5717 5720 5723 5726 5730 5732 5735 5737 5740 5742 5745 5747 5748 5750 5752 5753 5755 5757 5758 5760 5761 5762 5764 5765 5768 5770 5772
5712 5712 5712 5711 5710 5709 5708 5706 5705 5704 5703 5703 5703 5703 5703 5703 5704 5705 5705 5706 5706 5706 5706 5706 5705 5704 5704 5704 5703 5702 5701 5700 5700 5699 5698 5698 5698 5698 5697 5697 5696 5696 5696 5696 5696 5696 5696 5696 5697 5697 5697 5698 5699 5701 5703 5705 5707 5709 5711 5714 5716 5719 5722 5725 5728 5731 5734 5736 5738 5741 5743 5745 5746 5748 5749 5751 5753 5754 5756 5757 5758 5760 5761 5763 5765 5767
5712 5711 5711 5710 5709 5709 5708 5706 5705 5704 5703 5703 5703 5703 5703 5703 5704 5704 5705 5705 5705 5705 5705 5705 5704 5703 5703 5702 5702 5701 5700 5699 5699 5699 5698 5698 5698 5697 5696 5696 5696 5695 5695 5695 5695 5695 5696 5696 5696 5697 5697 5698 5699 5700 5702 5704 5705 5707 5709 5711 5713 5716 5718 5721 5724 5727 5729 5732 5734 5737 5739 5741 5742 5744 5746 5747 5748 5750 5752 5753 5754 5756 5757 5758 5760 5761
5711 5711 5710 5710 5709 5709 5708 5707 5706 5705 5704 5704 5703 5703 5703 5704 5704 5704 5704 5704 5705 5705 5704 5704 5703 5702 5702 5701 5700 5700 5700 5699 5699 5698 5698 5697 5697 5696 5695 5695 5695 5694 5694 5694 5694 5694 5695 5695 5696 5696 5697 5698 5699 5700 5701 5703 5704 5706 5708 5710 5711 5713 5715 5717 5720 5723 5725 5728 5730 5732 5734 5736 5738 5740 5741 5743 5744 5746 5747 5749 5750 5751 5753 5754 5755 5757
5710 5710 5710 5709 5709 5709 5708 5707 5706 5705 5704 5704 5704 5704 5704 5704 5704 5704 5704 5704 5704 5704 5704 5703 5702 5702 5702 5701 5699 5699 5699 5699 5698 5698 5697 5696 5696 5695 5695 5694 5694 5693 5693 5693 5693 5693 5694 5694 5695 5695 5696 5697 5698 5699 5700 5702 5703 5705 5706 5708 5710 5712 5714 5715 5717 5719 5721 5724 5726 5728 5730 5732 5734 5735 5737 5738 5740 5741 5743 5744 5745 5747 5748 5749 5751 5752
5709 5709 5709 5709 5709 5708 5708 5707 5706 5705 5705 5704 5704 5704 5704 5704 5704 5704 5704 5704 5703 5703 5703 5703 5702 5701 5701 5700 5699 5699 5699 5698 5697 5697 5696 5696 5695 5694 5694 5693 5693 5693 5693 5693 5693 5693 5693 5693 5693 5694 5694 5695 5696 5697 5699 5700 5701 5703 5705 5706 5708 5710 5712 5713 5715 5716 5718 5720 5722 5724 5726 5728 5729 5731 5732 5734 5735 5737 5738 5739 5741 5742 5743 5744 5746 5747
5708 5708 5708 5708 5708 5708 5707 5707 5706 5705 5705 5705 5704 5704 5704 5704 5704 5703 5703 5703 5703 5702 5702 5702 5701 5701 5700 5699 5698 5698 5698 5697 5696 5696 5695 5694 5694 5694 5694 5693 5693 5692 5692 5692 5692 5692 5692 5692 5692 5692 5692 5693 5694 5695 5697 5698 5700 5701 5703 5704 5706 5708 5709 5711 5713 5714 5716 5717 5719 5720 5722 5724 5725 5727 5728 5730 5731 5732 5733 5735 5736 5737 5738 5739 5741 5742
5707 5707 5707 5707 5707 5707 5706 5706 5706 5705 5705 5705 5705 5704 5704 5704 5703 5703 5702 5702 5701 5701 5701 5700 5700 5699 5698 5697 5697 5698 5697 5696 5695 5695 5694 5694 5694 5693 5693 5693 5692 5692 5691 5691 5691 5691 5691 5691 5691 5691 5691 5692 5692 5693 5695 5696 5698 5699 5701 5702 5703 5705 5706 5708 5710 5711 5713 5714 5716 5717 5719 5720 5722 5723 5724 5726 5727 5728 5729 5730 5731 5732 5733 5735 5736 5737
5706 5706 5706 5706 5706 5706 5706 5705 5705 5705 5704 5704 5704 5704 5704 5703 5703 5702 5701 5700 5700 5700 5699 5699 5698 5698 5697 5697 5697 5697 5697 5695 5695 5694 5694 5694 5693 5693 5693 5692 5692 5691 5691 5690 5690 5690 5690 5690 5690 5690 5691 5691 5691 5692 5693 5695 5696 5697 5699 5700 5701 5702 5703 5705 5706 5708 5709 5711 5712 5714 5715 5716 5717 5719 5720 5722 5723 5724 5725 5727 5728 5729 5730 5730 5731 5732
5704 5705 5705 5705 5705 5705 5705 5705 5704 5704 5703 5703 5703 5703 5703 5702 5702 5701 5700 5699 5699 5698 5698 5698 5697 5697 5696 5695 5696 5696 5696 5694 5694 5694 5694 5693 5693 5692 5692 5692 5691 5691 5690 5690 5690 5690 5690 5689 5690 5690 5690 5690 5691 5691 5692 5693 5695 5696 5697 5698 5699 5700 5701 5702 5703 5705 5706 5708 5709 5710 5711 5712 5713 5714 5716 5717 5718 5719 5721 5722 5723 5724 5725 5726 5727 5728
5703 5703 5703 5703 5704 5704 5704 5704 5704 5703 5702 5701 5702 5702 5702 5701 5701 5700 5699 5698 5697 5697 5697 5696 5696 5696 5695 5694 5695 5695 5694 5693 5693 5694 5693 5693 5692 5691 5691 5691 5691 5690 5690 5690 5690 5690 5689 5689 5689 5689 5690 5690 5690 5691 5691 5692 5693 5694 5695 5696 5697 5698 5699 5700 5701 5702 5704 5705 5706 5707 5708 5709 5709 5710 5711 5712 5713 5714 5716 5717 5718 5719 5720 5721 5722 5723
5701 5701 5702 5702 5702 5703 5703 5702 5702 5702 5701 5700 5701 5701 5700 5700 5699 5698 5697 5696 5696 5695 5695 5695 5694 5694 5694 5693 5693 5693 5693 5692 5692 5692 5692 5692 5691 5691 5691 5691 5690 5690 5690 5690 5689 5689 5690 5690 5690 5690 5690 5690 5690 5691 5691 5692 5692 5693 5694 5695 5695 5696 5697 5698 5699 5700 5701 5702 5703 5704 5705 5706 5706 5707 5708 5708 5709 5710 5711 5712 5713 5714 5715 5716 5717 5718
5699 5700 5700 5700 5700 5701 5701 5701 5701 5700 5699 5700 5700 5699 5699 5698 5697 5696 5695 5695 5694 5694 5694 5693 5693 5693 5692 5692 5692 5692 5692 5691 5691 5691 5691 5691 5691 5691 5691 5691 5690 5690 5690 5690 5690 5690 5690 5690 5690 5690 5690 5690 5690 5691 5691 5692 5692 5693 5693 5694 5694 5695 5695 5696 5697 5698 5699 5700 5701 5702 5702 5703 5704 5704 5705 5705 5706 5707 5708 5708 5709 5710 5711 5712 5713 5714
5698 5698 5698 5698 5699 5699 5698 5699 5699 5698 5698 5698 5698 5698 5697 5697 5696 5695 5694 5694 5693 5693 5693 5692 5692 5692 5692 5691 5692 5692 5692 5691 5691 5691 5691 5691 5691 5691 5691 5691 5691 5691 5691 5690 5690 5690 5691 5690 5691 5691 5691 5691 5691 5691 5692 5692 5692 5693 5693 5693 5694 5694 5694 5695 5696 5696 5697 5698 5699 5700 5700 5701 5701 5702 5702 5703 5704 5704 5705 5705 5706 5707 5708 5709 5709 5710
5696 5696 5697 5697 5697 5697 5697 5696 5697 5696 5696 5697 5696 5696 5696 5695 5695 5694 5694 5693 5693 5693 5692 5692 5692 5692 5692 5692 5692 5692 5692 5692 5692 5692 5691 5691 5691 5691 5691 5691 5691 5691 5691 5691 5691 5691 5691 5691 5691 5691 5691 5691 5691 5692 5692 5692 5692 5693 5693 5693 5693 5694 5694 5695 5695 5696 5696 5697 5698 5698 5699 5699 5700 5700 5701 5701 5702 5702 5702 5703 5704 5704 5705 5705 5706 5707
5694 5695 5695 5695 5695 5695 5695 5694 5695 5695 5695 5695 5694 5694 5694 5694 5694 5694 5693 5693 5693 5693 5693 5693 5693 5692 5692 5692 5692 5692 5693 5692 5692 5692 5692 5692 5691 5691 5691 5691 5691 5691 5691 5691 5691 5691 5691 5691 5691 5691 5691 5691 5691 5692 5692 5692 5692 5692 5693 5693 5693 5693 5694 5694 5695 5695 5695 5696 5696 5697 5697 5698 5698 5698 5699 5699 5700 5700 5700 5701 5701 5702 5702 5703 5703 5703
5693 5693 5694 5694 5694 5694 5693 5693 5693 5693 5693 5693 5693 5693 5693 5693 5693 5694 5694 5693 5693 5693 5693 5693 5693 5693 5693 5692 5692 5692 5692 5692 5692 5692 5692 5692 5691 5691 5691 5691 5691 5691 5691 5691 5691 5691 5691 5691 5691 5691 5691 5691 5691 5691 5692 5692 5692 5692 5692 5692 5693 5693 5693 5694 5694 5694 5695 5695 5695 5696 5696 5696 5696 5697 5697 5697 5698 5698 5698 5699 5699 5699 5700 5700 5700 5701
5691 5692 5692 5692 5693 5693 5692 5692 5692 5692 5692 5692 5692 5692 5692 5693 5693 5693 5693 5693 5693 5693 5693 5693 5693 5693 5692 5692 5692 5692 5692 5692 5692 5692 5691 5691 5691 5691 5691 5691 5690 5690 5690 5690 5690 5690 5690 5690 5691 5691 5691 5691 5691 5691 5691 5691 5691 5691 5692 5692 5692 5692 5693 5693 5693 5694 5694 5694 5694 5694 5695 5695 5695 5695 5695 5696 5696 5696 5696 5697 5697 5697 5697 5698 5698 5698
5690 5690 5690 5690 5691 5691 5691 5691 5691 5691 5691 5691 5691 5691 5692 5692 5692 5693 5693 5693 5693 5693 5693 5693 5693 5692 5692 5691 5691 5691 5691 5691 5691 5691 5690 5690 5690 5690 5690 5690 5690 5690 5690 5690 5690 5690 5690 5690 5690 5690 5690 5690 5690 5690 5690 5690 5690 5691 5691 5691 5691 5692 5692 5692 5692 5693 5693 5693 5693 5693 5694 5694 5694 5694 5694 5694 5694 5694 5694 5694 5695 5695 5695 5695 5695 5695
5689 5689 5688 5688 5689 5689 5690 5689 5689 5689 5690 5690 5690 5691 5691 5691 5692 5692 5692 5693 5692 5692 5692 5692 5692 5691 5691 5691 5690 5690 5690 5690 5690 5690 5689 5689 5689 5689 5689 5689 5689 5689 5689 5689 5689 5689 5689 5689 5689 5689 5689 5689 5690 5690 5690 5690 5690 5690 5690 5690 5691 5691 5691 5691 5691 5692 5692 5692 5692 5692 5692 5692 5693 5692 5693 5693 5693 5693 5693 5693 5693 5693 5693 5692 5692 5692
5687 5687 5687 5687 5687 5688 5688 5688 5688 5688 5689 5689 5689 5690 5690 5691 5691 5691 5691 5692 5691 5691 5691 5691 5691 5690 5690 5689 5689 5689 5689 5688 5688 5688 5688 5688 5688 5688 5687 5687 5687 5687 5687 5687 5687 5687 5687 5687 5687 5688 5688 5688 5688 5689 5689 5689 5689 5689 5690 5690 5690 5690 5690 5691 5691 5691 5691 5691 5691 5691 5691 5691 5691 5691 5691 5691 5691 5691 5691 5691 5691 5691 5691 5691 5690 5690
5686 5686 5686 5686 5687 5687 5687 5687 5687 5687 5688 5688 5689 5689 5689 5690 5690 5690 5690 5690 5690 5690 5690 5690 5689 5689 5688 5688 5687 5687 5687 5686 5686 5686 5686 5686 5686 5686 5686 5686 5686 5685 5686 5686 5686 5686 5686 5686 5686 5686 5686 5687 5687 5687 5687 5688 5688 5688 5688 5689 5689 5689 5689 5690 5690 5690 5690 5690 5690 5690 5690 5690 5690 5690 5690 5690 5690 5690 5690 5690 5689 5689 5689 5689 5689 5688
5686 5685 5685 5686 5686 5686 5686 5686 5687 5687 5687 5688 5688 5688 5689 5689 5689 5689 5689 5689 5689 5689 5688 5688 5688 5687 5687 5686 5686 5685 5685 5685 5684 5684 5684 5684 5683 5683 5683 5683 5683 5683 5683 5684 5684 5684 5684 5685 5685 5685 5685 5686 5686 5686 5686 5686 5687 5687 5687 5687 5688 5688 5688 5689 5689 5689 5689 5689 5689 5689 5689 5689 5689 5689 5689 5688 5688 5688 5688 5688 5688 5688 5687 5687 5687 5686